Regional Weather Roundup
Issued by NWS Green Bay, WI

Home | Current Version | Previous Version | Graphics & Text | Print | Product List | Glossary Off
Versions: 1 2 3 4 5 6 7 8 9 10 11 12 13 14 15 16 17 18 19 20 21 22 23 24 25 26 27 28 29 30 31 32 33 34 35 36 37 38 39 40 41 42 43 44 45 46 47 48 49 50

000
ASUS43 KGRB 261510
RWRGRB

NORTH-CENTRAL AND NORTHEAST WISCONSIN REGIONAL WEATHER ROUNDUP
NATIONAL WEATHER SERVICE GREEN BAY WI
1000 AM CDT THU MAR 26 2015

WIZ005-009-010>012-018-019-261600-
NORTH CENTRAL WISCONSIN

CITY           SKY/WX    TMP DP  RH WIND       PRES   REMARKS
IRONWOOD       CLOUDY    19  16  86 N7        30.01R VSB 1
MANITOWISH WTR FLURRIES  21  14  75 N10G16    29.97S WCI  10
ARBOR VITAE    LGT SNOW  23  16  73 N18       29.96R WCI   9
EAGLE RIVER    LGT SNOW  23  15  71 N20       29.93R WCI   8
LAND O LAKES   LGT SNOW  21  16  79 N10       29.95R WCI  10
RHINELANDER    CLOUDY    23  13  65 NW14G24   29.94R
PHILLIPS       FLURRIES  22  14  72 N8        29.99R
ANTIGO         CLOUDY    25  19  77 N18       29.93R
TOMAHAWK       LGT SNOW  24  16  72 NW13G21   29.97R
MERRILL        FLURRIES  26  18  71 N14G20    29.96R
$$

WIZ013-073-261600-
NORTHEAST WISCONSIN

CITY           SKY/WX    TMP DP  RH WIND       PRES   REMARKS
IRON MOUNTAIN  FLURRIES  25  17  72 N15G24    29.91R
MARINETTE      CLOUDY    34  18  51 NW9G21    29.91R
OCONTO         CLOUDY    32  22  65 NW13G18   29.92S
$$

WIZ017-030-035>037-045-261600-
CENTRAL WISCONSIN

CITY           SKY/WX    TMP DP  RH WIND       PRES   REMARKS
MEDFORD        CLOUDY    25  16  68 N16       29.98R
WAUSAU         CLOUDY    27  17  66 NW15      29.95R
MOSINEE        CLOUDY    28  19  69 N18       29.97R
MARSHFIELD     CLOUDY    30  20  66 NW18      29.97R
WISC RAPIDS    CLOUDY    31  18  58 NW14G21   29.99R
STEVENS POINT  CLOUDY    29  19  66 NW10      29.97R
WAUPACA        CLOUDY    34  20  57 NW8G16    29.96S
SHAWANO        CLOUDY    33  22  63 N10G20    29.94S
CLINTONVILLE   CLOUDY    32  21  64 N15G21    29.94S
$$

WIZ038-039-048-051-261600-
FOX VALLEY

CITY           SKY/WX    TMP DP  RH WIND       PRES   REMARKS
NWS GREEN BAY  CLOUDY    34  23  64 NW12      29.94R
APPLETON       CLOUDY    32  19  59 NW15G22   29.94R
OSHKOSH        CLOUDY    34  22  61 NW9       29.94S
FOND DU LAC    CLOUDY    35  21  56 NW13      29.95S
$$

WIZ022-050-052-261600-
EAST CENTRAL WISCONSIN

CITY           SKY/WX    TMP DP  RH WIND       PRES   REMARKS
STURGEON BAY   CLOUDY    32  21  64 NW13      29.93R
MANITOWOC      CLOUDY    35  24  64 NW9       29.93R
SHEBOYGAN      CLOUDY    35  22  58 W14       29.93S
$$

LMZ563-521-522-541>543-261600-
LAKESHORE

STATION/POSITION TIME  TEMP    WIND        PRES    VSBY  WAVE
                       AIR SEA DIR/SP/G                  HT/PER
                 (UTC) (F)     (DEG/KT/KT) (MB)    (MI)  (FT/S)
SHEBOYGAN LKSHOR 1500   36     300/  9/ 12 1014.5R
KEWAUNEE LKSHORE 1500   34     310/ 10/ 15 1012.2R
NORTHPORT PIER   1500   31     300/ 12/ 16 1012.5S
SISTER BAY LKSHO 1500   32     330/ 19/ 21   N/A
CHAMBERS ISLAND  1500   32     300/ 10/ 18 1013.2R
MENOMINEE LKSHOR 1500   33     300/ 14     1013.5R
$$


USA.gov is the U.S. government's official web portal to all federal, state and local government web resources and services.